This is the latest recevied weather packets stored in our database for station/object KD4PMP. If no packets are shown the sender has not sent any weather packets the latest 10 day(s).
| Time | Temp. | Humidity | Pressure | Rain* | Wind** | Luminosity | Snow |
|---|---|---|---|---|---|---|---|
| 1777717216 | 6.11° C | 87% | 1015.6 hPa | 0 mm | - | - | - |
| 1777716617 | 6.11° C | 87% | 1015.4 hPa | 0 mm | - | - | - |
| 1777716016 | 6.11° C | 87% | 1015.4 hPa | 0 mm | - | - | - |
| 1777715416 | 6.67° C | 86% | 1015.4 hPa | 0 mm | - | - | - |
| 1777714815 | 6.67° C | 85% | 1015.4 hPa | 0 mm | - | - | - |
| 1777714215 | 6.67° C | 85% | 1015.3 hPa | 0 mm | - | - | - |
| 1777713615 | 7.22° C | 84% | 1015.5 hPa | 0 mm | - | - | - |
| 1777713015 | 7.22° C | 84% | 1015.5 hPa | 0 mm | - | - | - |
| 1777712415 | 7.22° C | 83% | 1015.5 hPa | 0 mm | - | - | - |
| 1777711814 | 7.78° C | 82% | 1015.4 hPa | 0 mm | - | - | - |
| 1777711214 | 7.78° C | 82% | 1015.3 hPa | 0 mm | - | - | - |
| 1777710614 | 8.33° C | 80% | 1015.4 hPa | 0 mm | - | - | - |
| 1777710013 | 8.33° C | 79% | 1015.3 hPa | 0 mm | - | - | - |
| 1777709413 | 8.33° C | 79% | 1015.4 hPa | 0 mm | - | - | - |
| 1777708813 | 8.89° C | 78% | 1015.3 hPa | 0 mm | - | - | - |
| 1777708212 | 8.89° C | 76% | 1015.9 hPa | 0 mm | - | - | - |
| 1777707613 | 8.89° C | 77% | 1015.9 hPa | 0 mm | - | - | - |
| 1777707012 | 8.89° C | 75% | 1016 hPa | 0 mm | - | - | - |
| 1777706411 | 9.44° C | 75% | 1016 hPa | 0 mm | - | - | - |
| 1777705811 | 9.44° C | 73% | 1016.2 hPa | 0 mm | - | - | - |
| 1777705211 | 9.44° C | 73% | 1016.1 hPa | 0 mm | - | - | - |
| 1777704611 | 8.89° C | 74% | 1016 hPa | 0 mm | - | - | - |
| 1777704010 | 8.89° C | 76% | 1016 hPa | 0 mm | - | - | - |
| 1777703410 | 8.89° C | 78% | 1016.1 hPa | 0 mm | - | - | - |
| 1777702809 | 8.89° C | 77% | 1016.3 hPa | 0 mm | - | - | - |
* Rain latest hour (hover to see other rain measurements)
** Current wind speed in m/s (hover to see current wind gust speed)